Вернуться в каталог

STARLINK-34429

АктивенСвязьVLEO
NORAD 64464·PAYLOAD·🇺🇸 United States

Запущен Jun 18, 2025 с Cape Canaveral Space Force Station

Loading…

Ближайшие Пролёты (ближайшие 24 часа)

TLE

СвежийSource: CelesTrak SupGP

Эпоха: Sep 14, 2026, 21:03 UTC

1 64464C 25130AC  26257.87756944  .00028697  00000+0  84810-3 0  2579
2 64464  53.1580 285.6593 0001185  89.6244  15.8468 15.34366928    14

Отслеживайте STARLINK-34429 в реальном времени с AllMySat

Download on the App Store